Regional Weather Roundup
Issued by NWS Midland/Odessa, TX

Skip options and go directly to product.
Home | Oldest Version | Previous Version | Current Version | All | Text Only | Save Text | Print | Product List | Glossary On

Skip product version selection by date and time.   
222
ASUS44 KMAF 010010
RWRMAF
MIDLAND AREA WEATHER ROUNDUP
NATIONAL WEATHER SERVICE MIDLAND TX
600 PM CST SAT JAN 31 2015

...IN SOUTHWEST TEXAS AND SOUTHEAST NEW MEXICO...

CITY           SKY/WX    TMP DP  RH WIND       PRES   REMARKS
ALPINE         MOCLDY    60  41  50 SW10G20   29.92R
ANDREWS        CLOUDY    49  48  97 SW6       29.86R
ARTESIA        CLEAR     50  48  93 SE10      29.83R
BIG SPRING     CLOUDY    54  51  90 S13       29.89R
CARLSBAD       CLOUDY    49  43  80 SE6       29.84R
DRYDEN           N/A     54  52  93 SE9       29.86R
FORT STOCKTON  MOCLDY    60  53  77 NW9       29.82S
GUAD PASS      CLOUDY    47  42  83 SW20G29   29.88R WCI  40
HOBBS          CLOUDY    46  46 100 S6        29.86R FOG
MARFA          MOCLDY    57  37  47 SW13      29.91R
MIDLAND AIRPK  CLOUDY    53  51  92 S6        29.86S
MIDLAND INTL   CLOUDY    53  50  89 S7        29.85S
ODESSA         CLOUDY    52  49  89 SW6       29.86S
PECOS          CLOUDY    50  47  88 NW3       29.86R
PRESIDIO       FAIR      68  46  45 CALM      29.82R
SEMINOLE       CLOUDY    47  47 100 SW5       29.87R FOG
SNYDER         CLOUDY   N/A N/A N/A CALM      29.87F FOG
WINK           CLOUDY    54  47  77 CALM      29.84R
$$
...OTHER STATIONS IN TEXAS...

CITY           SKY/WX    TMP DP  RH WIND       PRES   REMARKS
ABILENE        CLOUDY    52  50  93 S10       29.88R
AMARILLO       CLOUDY    40  39  97 S12       29.84S WCI  33
AUSTIN         LGT RAIN  57  57 100 SE3       29.95R FOG
BROWNSVILLE    CLOUDY    70  63  78 SE12      29.95R
CORPUS CHRISTI MOCLDY    68  62  81 SE16      29.95S
DALLAS FTW     RAIN      49  47  93 SE5       29.98F FOG
DEL RIO        CLOUDY    58  55  90 SE8       29.88R
EL PASO        CLOUDY    56  45  66 W10       29.87R
HOUSTON INT    CLOUDY    60  55  83 E15       30.02F
LUBBOCK        DRZL/FOG  44  43  96 SW6       29.85S VSB 3/4
SAN ANGELO     CLOUDY    59  54  83 S17G23    29.86R
SAN ANTONIO    LGT RAIN  61  59  93 CALM      29.94R FOG
WACO           RAIN      53  53 100 E7        29.97F FOG
WICHITA FALLS  NOT AVBL
$$
...OTHER LOCATIONS IN NEW MEXICO...

CITY           SKY/WX    TMP DP  RH WIND       PRES   REMARKS
ALAMAGORDO     CLOUDY    50  45  81 E6        29.89S
ALBUQUERQUE    MOCLDY    41  35  79 NW5       29.89S WCI  38
CANNON AFB     CLOUDY    41 N/A N/A SW8       29.83S WCI  36
CLOVIS         CLOUDY    43  39  87 SW10      29.83S WCI  37
HOLLOMAN AFB   MOCLDY    50  45  83 E5        29.86S
ROSWELL        CLOUDY    45  41  86 NE7       29.83S
RUIDOSO        MOCLDY    39  36  87 W16       29.88R WCI  30
SANTA FE       CLOUDY    34  32  92 CALM      29.86S
TRUTH OR CONSE CLOUDY    50  44  80 S8        29.86S
TUCUMCARI      PTCLDY    43  38  82 S10       29.78F WCI  37
$$

USA.gov is the U.S. government's official web portal to all federal, state and local government web resources and services.